Regional Weather Roundup
Issued by NWS

Home | Current Version | Previous Version | Text Only | Print | Product List | Glossary On
Versions: 1 2 3 4 5 6 7 8 9 10 11 12 13 14 15 16 17 18 19 20 21 22 23 24 25 26 27 28 29 30 31 32 33 34 35 36 37 38 39 40 41 42 43 44 45 46 47 48 49 50
000
ASUS43 KDTX 180110
RWRMI
MICHIGAN HOURLY REGIONAL WEATHER ROUNDUP
NATIONAL WEATHER SERVICE DETROIT/PONTIAC MI
900 PM EDT WED SEP 17 2014

NOTE: "FAIR" INDICATES FEW OR NO CLOUDS BELOW 12,000 FEET WITH NO
SIGNIFICANT WEATHER AND/OR OBSTRUCTION TO VISIBILITY.

MIZ047>049-052>055-059>063-066>070-074>076-081>083-180200-
SOUTHEAST LOWER MICHIGAN

CITY           SKY/WX    TMP DP  RH WIND       PRES   REMARKS
ADRIAN         CLEAR     53  47  79 CALM      30.00R
ALMA           CLEAR     50  48  92 CALM      29.99S
ANN ARBOR      CLEAR     48  44  86 CALM      29.99R
BAD AXE        CLEAR     49  47  94 CALM      29.97S
CARO           CLEAR     49  47  96 CALM      29.97S
DETROIT CITY   MOCLDY    63  43  48 CALM      29.99R
DETROIT        PTCLDY    61  44  53 NW3       29.99R
FLINT          CLEAR     53  47  79 W3        29.99R
GROSSE ILE     PTCLDY    57  50  77 CALM      29.97S
HILLSDALE      CLEAR     48  47  93 CALM      30.00R
HOWELL         CLEAR     52  46  80 CALM      29.99R

CITY           SKY/WX    TMP DP  RH WIND       PRES   REMARKS
JACKSON        CLEAR     51  47  86 CALM      30.00R
LAMBERTVILLE   MOCLDY    54  50  87 CALM      30.00R
LANSING        CLEAR     55  48  77 NW3       30.00R
LAPEER         FAIR      49  47  92 CALM      29.99R
MASON          CLEAR     52  48  85 CALM      30.00R
MONROE         PTCLDY    54  48  82 CALM      29.98R
MT. CLEMENS    CLEAR     52  46  78 CALM      29.98R
PONTIAC        PTCLDY    55  47  74 CALM      29.99R
PORT HOPE        N/A     55  48  77 SW5       29.95S
PORT HURON     CLEAR     48  46  93 CALM      29.99R
TRI CITIES     CLEAR     58  49  72 SW7       29.99R
TROY           CLEAR     60  44  55 CALM      30.00S
SAGINAW HB     CLEAR     55  48  76 SW3       29.98R
$$
MIZ043>046-050>051-056>058-064>065-071>073-077>080-180200-
SOUTHWEST LOWER MICHIGAN

CITY           SKY/WX    TMP DP  RH WIND       PRES   REMARKS
BATTLE CREEK   CLEAR     57  47  69 N3        30.01R
BENTON HARBOR  CLEAR     50  48  93 CALM      30.00R
BIG RAPIDS     CLEAR     52  49  90 W5        29.99R
COLDWATER      CLEAR     54  48  80 CALM      30.00R
FREMONT        FAIR      52  47  83 CALM      30.00R
HOLLAND        CLEAR     52  48  86 CALM      30.01R
GRAND RAPIDS   CLEAR     58  45  62 NW5       30.01R
IONIA          FAIR      55  47  75 W3        30.00R
KALAMAZOO      CLEAR     56  46  69 CALM      30.01R
LUDINGTON      CLEAR     55  50  83 SW3       30.00R
MARSHALL       CLEAR     51  46  84 W3        29.99R
MOUNT PLEASANT CLEAR     52  48  87 W3        29.98R
MUSKEGON       PTCLDY    54  48  80 S6        30.00S
SOUTH HAVEN    CLEAR     51  50  93 CALM      30.00R
$$
MIZ016>042-180200-
NORTHERN LOWER MICHIGAN

CITY           SKY/WX    TMP DP  RH WIND       PRES   REMARKS
ALPENA         CLOUDY    55  49  80 N14       29.99R
BEAVER ISLAND  CLOUDY    50  44  81 N7        30.04R
BELLAIRE       MOCLDY    56  51  80 N3        30.00R
CADILLAC       CLEAR     48  47  95 CALM      29.99R
CHARLEVOIX     CLOUDY    55  47  76 N14G20    30.05R
FRANKFORT      MOCLDY    56  51  81 CALM      29.98S
GAYLORD        CLEAR     53  45  74 CALM      29.99R
GRAYLING       CLEAR     49  47  92 CALM      29.99S
HARBOR SPRINGS CLOUDY    54  45  71 N10G18    30.01R
HOUGHTON LAKE  CLEAR     53  45  74 NW5       29.99R
MANISTEE       CLEAR     54  46  76 CALM      29.99S
OSCODA         PTCLDY    54  49  83 SW5       29.96R
PELLSTON       CLOUDY    53  46  77 N13       30.03R
ROGERS CITY    CLOUDY    53  49  87 NW9G16    30.01R
TRAVERSE CITY  PTCLDY    56  48  74 CALM      29.97R
$$
MIZ007>008-015-180200-
EASTERN UPPER MICHIGAN

CITY           SKY/WX    TMP DP  RH WIND       PRES   REMARKS
KINROSS        CLOUDY    48  45  87 N8        30.03R
MACKINAC ISLAN CLOUDY    49  44  81 N12       30.02R
NEWBERRY       CLOUDY    42  39  89 NW7       30.05R
S. S. MARIE    CLOUDY    47  40  76 N8        30.03R
MUNISING         N/A     48  41  76 NE16      30.08R
$$
MIZ004>006-011>014-085-180200-
CENTRAL UPPER MICHIGAN

CITY           SKY/WX    TMP DP  RH WIND       PRES   REMARKS
MANISTIQUE     CLOUDY    45  40  82 N10       30.06R
ESCANABA       CLOUDY    46  39  76 N12G20    30.06R
MENOMINEE      CLOUDY    54  45  71 NE14G20   30.01R
SAWYER-GWINN   CLOUDY    41  37  87 N15       30.07R
$$
MIZ001>003-009>011-084-180200-
WESTERN UPPER MICHIGAN

CITY           SKY/WX    TMP DP  RH WIND       PRES   REMARKS
IRON MOUNTAIN  CLOUDY    47  41  80 N8        30.04R
HOUGHTON       CLEAR     37  32  82 CALM      30.11R
COPPER HARBOR    N/A     43  35  73 E13       30.12R
IRONWOOD       CLOUDY    45  43  93 NE8       30.06R
$$

ABBREVIATIONS USED IN REMARKS
   TC - TEMPERATURE IN CELSIUS
  WCI - WIND CHILL INDEX
   HX - HEAT INDEX
  VSB - VISIBILITY



USA.gov is the U.S. government's official web portal to all federal, state and local government web resources and services.